Tracking 23731 objects as of 27-Sep-2021
HD Live streaming from Space Station
objects crossing your sky now

STARLINK-2103

Track STARLINK-2103 now!
10-day predictions
STARLINK-2103 is classified as:


NORAD ID: 47383
Int'l Code: 2021-005AL
Perigee: 552.9 km
Apogee: 555.8 km
Inclination: 53.1 °
Period: 95.6 minutes
Semi major axis: 6925 km
RCS: Unknown
Launch date: January 20, 2021
Source: United States (US)
Launch site: AIR FORCE EASTERN TEST RANGE (AFETR)
aabbcc
Your satellite tracking list
Your tracking list is empty




NASA's NSSDC Master Catalog

Two Line Element Set (TLE):
1 47383U 21005AL  21269.31396635  .00001915  00000-0  14742-3 0  9996
2 47383  53.0542 118.2158 0002095  81.4957 278.6269 15.06399291 38626
Source of the keplerian elements: AFSPC